Satellite: MET-3/5 Catalog number: 21655 Epoch time: 12075.55633581 Element set: 359 Inclination: 082.5561 deg RA of node: 218.3184 deg Eccentricity: 0.0013223 Arg of perigee: 191.6867 deg Mean anomaly: 168.3897 deg Mean motion: 13.17035799 rev/day Decay rate: 5.1e-07 rev/day^2 Epoch rev: 98957 Checksum: 340
Satellite: MET-2/21 Catalog number: 22782 Epoch time: 12075.58502497 Element set: 364 Inclination: 082.5457 deg RA of node: 106.7851 deg Eccentricity: 0.0024010 Arg of perigee: 057.2601 deg Mean anomaly: 303.0881 deg Mean motion: 13.83676797 rev/day Decay rate: 7.0e-08 rev/day^2 Epoch rev: 93622 Checksum: 302
Satellite: OKEAN-4 Catalog number: 23317 Epoch time: 12075.89718604 Element set: 831 Inclination: 082.5398 deg RA of node: 118.4128 deg Eccentricity: 0.0019976 Arg of perigee: 302.7638 deg Mean anomaly: 057.1652 deg Mean motion: 14.83632528 rev/day Decay rate: 9.60e-06 rev/day^2 Epoch rev: 94097 Checksum: 333
Satellite: NOAA-14 Catalog number: 23455 Epoch time: 12074.92794851 Element set: 0837 Inclination: 098.8272 deg RA of node: 159.6050 deg Eccentricity: 0.0008957 Arg of perigee: 223.7898 deg Mean anomaly: 136.2565 deg Mean motion: 14.13883941 rev/day Decay rate: 3.43e-06 rev/day^2 Epoch rev: 88747 Checksum: 355
Satellite: NOAA-15 Catalog number: 25338 Epoch time: 12074.76175415 Element set: 0187 Inclination: 098.6853 deg RA of node: 062.5940 deg Eccentricity: 0.0011039 Arg of perigee: 028.3578 deg Mean anomaly: 331.8180 deg Mean motion: 14.25040461 rev/day Decay rate: 2.03e-06 rev/day^2 Epoch rev: 71940 Checksum: 292
Satellite: RESURS Catalog number: 25394 Epoch time: 12075.89773462 Element set: 38 Inclination: 098.3152 deg RA of node: 069.0739 deg Eccentricity: 0.0002041 Arg of perigee: 128.7427 deg Mean anomaly: 231.3935 deg Mean motion: 14.24277560 rev/day Decay rate: 1.26e-06 rev/day^2 Epoch rev: 71112 Checksum: 289
Satellite: FENGYUN1 Catalog number: 25730 Epoch time: 12075.93505523 Element set: 559 Inclination: 098.8410 deg RA of node: 036.5792 deg Eccentricity: 0.0018587 Arg of perigee: 276.3884 deg Mean anomaly: 083.5164 deg Mean motion: 14.09318407 rev/day Decay rate: 1.224e-05 rev/day^2 Epoch rev: 66147 Checksum: 318
Satellite: OKEAN-0 Catalog number: 25860 Epoch time: 12074.91305905 Element set: 0574 Inclination: 097.9247 deg RA of node: 039.5507 deg Eccentricity: 0.0001079 Arg of perigee: 109.5898 deg Mean anomaly: 250.5427 deg Mean motion: 14.74115629 rev/day Decay rate: 6.46e-06 rev/day^2 Epoch rev: 68068 Checksum: 326
Satellite: NOAA-16 Catalog number: 26536 Epoch time: 12074.77047765 Element set: 0671 Inclination: 099.1070 deg RA of node: 115.3858 deg Eccentricity: 0.0010356 Arg of perigee: 353.8402 deg Mean anomaly: 006.2631 deg Mean motion: 14.12712599 rev/day Decay rate: -8.7e-07 rev/day^2 Epoch rev: 59170 Checksum: 305
Satellite: NOAA-17 Catalog number: 27453 Epoch time: 12074.89574152 Element set: 0636 Inclination: 098.3468 deg RA of node: 106.6555 deg Eccentricity: 0.0012730 Arg of perigee: 074.7459 deg Mean anomaly: 285.5123 deg Mean motion: 14.24404058 rev/day Decay rate: 2.05e-06 rev/day^2 Epoch rev: 50533 Checksum: 305
Satellite: NOAA-18 Catalog number: 28654 Epoch time: 12074.72605978 Element set: 0110 Inclination: 099.0357 deg RA of node: 032.0811 deg Eccentricity: 0.0015133 Arg of perigee: 061.9532 deg Mean anomaly: 298.3160 deg Mean motion: 14.11618001 rev/day Decay rate: 3.81e-06 rev/day^2 Epoch rev: 35123 Checksum: 269
Satellite: NOAA-19 Catalog number: 33591 Epoch time: 12074.78359563 Element set: 0300 Inclination: 098.8574 deg RA of node: 015.7804 deg Eccentricity: 0.0013310 Arg of perigee: 290.2496 deg Mean anomaly: 069.7245 deg Mean motion: 14.11305935 rev/day Decay rate: 3.3e-07 rev/day^2 Epoch rev: 15969 Checksum: 312
/EX SB KEPS @ AMSAT $ORB12075.M Orbital Elements 12075.MISC
HR AMSAT ORBITAL ELEMENTS FOR MANNED AND MISCELLANEOUS SATELLITES FROM WA5QGD FORT WORTH,TX March 15, 2012 Send SUBSCRIBE KEPS/UNSUBSCRIBE KEPS to [email protected] only BID: ORB12075.M TO ALL RADIO AMATEURS BT
Satellite: HUBBLE Catalog number: 20580 Epoch time: 12075.19440738 Element set: 963 Inclination: 028.4707 deg RA of node: 038.5295 deg Eccentricity: 0.0003689 Arg of perigee: 141.7876 deg Mean anomaly: 218.2985 deg Mean motion: 15.02272664 rev/day Decay rate: 1.841e-05 rev/day^2 Epoch rev: 58 Checksum: 309
Satellite: ISS Catalog number: 25544 Epoch time: 12075.92117777 Element set: 192 Inclination: 051.6400 deg RA of node: 229.6734 deg Eccentricity: 0.0016994 Arg of perigee: 159.6837 deg Mean anomaly: 338.9582 deg Mean motion: 15.59224002 rev/day Decay rate: 2.0886e-04 rev/day^2 Epoch rev: 76347 Checksum: 331
Satellite: CO-58 Catalog number: 28895 Epoch time: 12075.63988014 Element set: 123 Inclination: 097.9310 deg RA of node: 305.9593 deg Eccentricity: 0.0018973 Arg of perigee: 086.1117 deg Mean anomaly: 274.2241 deg Mean motion: 14.60521195 rev/day Decay rate: 6.94e-06 rev/day^2 Epoch rev: 34000 Checksum: 312
Satellite: FALCON Catalog number: 30776 Epoch time: 12074.59617009 Element set: 0314 Inclination: 035.4320 deg RA of node: 134.2883 deg Eccentricity: 0.0002830 Arg of perigee: 268.4167 deg Mean anomaly: 091.6225 deg Mean motion: 15.06833062 rev/day Decay rate: 4.009e-05 rev/day^2 Epoch rev: 27597 Checksum: 285
Satellite: MAST Catalog number: 31126 Epoch time: 12075.57095659 Element set: 408 Inclination: 097.8785 deg RA of node: 092.1373 deg Eccentricity: 0.0094886 Arg of perigee: 042.8001 deg Mean anomaly: 318.0556 deg Mean motion: 14.54064589 rev/day Decay rate: 4.74e-06 rev/day^2 Epoch rev: 26066 Checksum: 323
Satellite: CAPE1 Catalog number: 31130 Epoch time: 12075.52748953 Element set: 419 Inclination: 097.8850 deg RA of node: 088.5415 deg Eccentricity: 0.0102608 Arg of perigee: 055.6543 deg Mean anomaly: 305.4289 deg Mean motion: 14.52810023 rev/day Decay rate: 7.86e-06 rev/day^2 Epoch rev: 26017 Checksum: 297
Satellite: COMPASS Catalog number: 32787 Epoch time: 12074.66012629 Element set: 0250 Inclination: 097.8097 deg RA of node: 138.0659 deg Eccentricity: 0.0015604 Arg of perigee: 014.5083 deg Mean anomaly: 345.6578 deg Mean motion: 14.83619714 rev/day Decay rate: 1.972e-05 rev/day^2 Epoch rev: 20979 Checksum: 325
Satellite: AAUSAT2 Catalog number: 32788 Epoch time: 12074.91901052 Element set: 0243 Inclination: 097.8127 deg RA of node: 138.6509 deg Eccentricity: 0.0014977 Arg of perigee: 016.2406 deg Mean anomaly: 343.9282 deg Mean motion: 14.83909763 rev/day Decay rate: 1.947e-05 rev/day^2 Epoch rev: 20985 Checksum: 327
Satellite: DO-64 Catalog number: 32789 Epoch time: 12075.65916429 Element set: 255 Inclination: 097.8218 deg RA of node: 141.0650 deg Eccentricity: 0.0014753 Arg of perigee: 008.8342 deg Mean anomaly: 351.3157 deg Mean motion: 14.85141211 rev/day Decay rate: 3.577e-05 rev/day^2 Epoch rev: 20999 Checksum: 318
Satellite: CO-66 Catalog number: 32791 Epoch time: 12075.69417605 Element set: 243 Inclination: 097.8117 deg RA of node: 138.8900 deg Eccentricity: 0.0015698 Arg of perigee: 011.4899 deg Mean anomaly: 348.6613 deg Mean motion: 14.83110748 rev/day Decay rate: 1.866e-05 rev/day^2 Epoch rev: 20988 Checksum: 344
Satellite: RS-30 Catalog number: 32953 Epoch time: 12075.84304605 Element set: 610 Inclination: 082.5072 deg RA of node: 353.1855 deg Eccentricity: 0.0018848 Arg of perigee: 147.9003 deg Mean anomaly: 212.3230 deg Mean motion: 12.43021499 rev/day Decay rate: 1.0e-07 rev/day^2 Epoch rev: 17296 Checksum: 269
Satellite: TACSAT-3 Catalog number: 35001 Epoch time: 12075.76403871 Element set: 905 Inclination: 040.4464 deg RA of node: 290.6824 deg Eccentricity: 0.0011898 Arg of perigee: 299.1689 deg Mean anomaly: 060.8034 deg Mean motion: 15.81312926 rev/day Decay rate: 1.79862e-03 rev/day^2 Epoch rev: 15965 Checksum: 326
Satellite: PHARMSAT Catalog number: 35002 Epoch time: 12075.84340584 Element set: 827 Inclination: 040.4654 deg RA of node: 297.3866 deg Eccentricity: 0.0000843 Arg of perigee: 186.3767 deg Mean anomaly: 173.7079 deg Mean motion: 15.68339454 rev/day Decay rate: 6.6452e-04 rev/day^2 Epoch rev: 15959 Checksum: 336
Satellite: METEOR-M Catalog number: 35865 Epoch time: 12075.69766118 Element set: 233 Inclination: 098.6668 deg RA of node: 131.7288 deg Eccentricity: 0.0002156 Arg of perigee: 344.2274 deg Mean anomaly: 015.8800 deg Mean motion: 14.21857499 rev/day Decay rate: 4.0e-08 rev/day^2 Epoch rev: 12931 Checksum: 311
Satellite: RS-38 Catalog number: 35869 Epoch time: 12075.80269290 Element set: 241 Inclination: 098.6630 deg RA of node: 131.8419 deg Eccentricity: 0.0004279 Arg of perigee: 333.4482 deg Mean anomaly: 026.6458 deg Mean motion: 14.22059051 rev/day Decay rate: 6.7e-07 rev/day^2 Epoch rev: 12934 Checksum: 311
Satellite: JUGNU Catalog number: 37839 Epoch time: 12074.61933390 Element set: 0109 Inclination: 019.9616 deg RA of node: 211.1157 deg Eccentricity: 0.0019327 Arg of perigee: 261.2510 deg Mean anomaly: 098.5712 deg Mean motion: 14.12032473 rev/day Decay rate: 6.20e-06 rev/day^2 Epoch rev: 02186 Checksum: 270
Satellite: SRMSAT Catalog number: 37841 Epoch time: 12074.75761561 Element set: 0110 Inclination: 019.9725 deg RA of node: 213.2993 deg Eccentricity: 0.0012506 Arg of perigee: 230.8327 deg Mean anomaly: 129.0993 deg Mean motion: 14.10122720 rev/day Decay rate: 2.64e-06 rev/day^2 Epoch rev: 02185 Checksum: 268
Satellite: RAX-2 Catalog number: 37853 Epoch time: 12074.98659191 Element set: 0132 Inclination: 101.7173 deg RA of node: 072.3394 deg Eccentricity: 0.0249943 Arg of perigee: 259.1836 deg Mean anomaly: 098.1143 deg Mean motion: 14.79167404 rev/day Decay rate: 4.065e-05 rev/day^2 Epoch rev: 02047 Checksum: 315
